Weather History for New York, NY

Change the Weather History Date:

Monday, December 31, 2012

  Actual Average Record
Temperature  
Mean Temperature 36 °F 34 °F  
Max Temperature 41 °F 40 °F 63 °F (1965)
Min Temperature 30 °F 28 °F 3 °F (1962)
Degree Days  
Heating Degree Days 29 31  
Month to date heating degree days 680 830  
Since 1 July heating degree days 1452 1606  
Cooling Degree Days 0 0  
Month to date cooling degree days 0 0  
Year to date cooling degree days 1511 1214  
Moisture  
Dew Point 18 °F    
Average Humidity 51    
Maximum Humidity 58    
Minimum Humidity 44    
Precipitation  
Precipitation 0.00 in 0.10 in 1.21 in (1948)
Month to date precipitation 4.30 3.56  
Year to date precipitation 36.71 44.73  
Snow  
Snow 0.00 in 0.30 in 3.30 in (1948)
Month to date snowfall 0.9 5.2  
Since 1 July snowfall 2.0 5.5  
Snow Depth 0.00 in    
Sea Level Pressure  
Sea Level Pressure 30.07 in    
Wind  
Wind Speed 14 mph (WSW)    
Max Wind Speed 24 mph    
Max Gust Speed 29 mph    
Visibility 10 miles    
Events      
T = Trace of Precipitation, MM = Missing Value Source: NWS Daily Summary

Daily Weather History Graph

Daily Weather History Graph

Search for Another Location

Airport:

Trip Planner

Search our weather history database for the weather conditions in past years. The results will help you decide how hot, cold, wet, or windy it might be!

Date:

Astronomy

Dec. 31, 2012 Rise Set
Actual Time 7:19 AM EST 4:38 PM EST
Civil Twilight 6:48 AM EST 5:08 PM EST
Nautical Twilight 6:14 AM EST 5:43 PM EST
Astronomical Twilight 5:41 AM EST 6:16 PM EST
Moon 8:07 PM EST (12/31) 8:58 AM EST (12/31)
Length of Visible Light 10h 20m
Length of Day
9h 18m
Waning Gibbous, 90% of the Moon is Illuminated
Dec 31
Waning Gibbous
Jan 4
Last Quarter
Jan 11
New
Jan 18
First Quarter
Jan 26
Full

Hourly Weather History & Observations

Time (EST) Temp. Windchill Dew Point Humidity Pressure Visibility Wind Dir Wind Speed Gust Speed Precip Events Conditions
12:51 AM 30.0 °F 19.5 °F 15.1 °F 54% 30.19 in 10.0 mi WNW 13.8 mph 20.7 mph N/A   Clear
1:51 AM 30.0 °F 20.0 °F 12.9 °F 49% 30.19 in 10.0 mi West 12.7 mph - N/A   Partly Cloudy
2:51 AM 30.0 °F 20.5 °F 12.0 °F 47% 30.19 in 10.0 mi West 11.5 mph - N/A   Scattered Clouds
3:51 AM 30.9 °F 20.2 °F 12.0 °F 46% 30.17 in 10.0 mi West 15.0 mph 20.7 mph N/A   Overcast
4:51 AM 33.1 °F 22.6 °F 16.0 °F 50% 30.18 in 10.0 mi West 16.1 mph 26.5 mph N/A   Overcast
5:51 AM 33.1 °F 24.4 °F 17.1 °F 52% 30.16 in 10.0 mi West 11.5 mph - N/A   Mostly Cloudy
6:51 AM 32.0 °F 21.6 °F 18.0 °F 56% 30.17 in 10.0 mi West 15.0 mph 23.0 mph N/A   Mostly Cloudy
7:51 AM 30.9 °F 18.7 °F 18.0 °F 59% 30.17 in 10.0 mi West 19.6 mph 26.5 mph N/A   Mostly Cloudy
8:51 AM 30.9 °F 20.7 °F 18.0 °F 59% 30.17 in 10.0 mi WSW 13.8 mph 23.0 mph N/A   Mostly Cloudy
9:51 AM 32.0 °F 23.0 °F 18.0 °F 56% 30.17 in 10.0 mi West 11.5 mph - N/A   Mostly Cloudy
10:51 AM 33.1 °F 24.9 °F 18.0 °F 54% 30.15 in 10.0 mi West 10.4 mph - N/A   Mostly Cloudy
11:51 AM 35.1 °F 26.9 °F 18.0 °F 50% 30.11 in 10.0 mi West 11.5 mph - N/A   Mostly Cloudy
12:51 PM 37.0 °F 29.8 °F 19.0 °F 48% 30.06 in 10.0 mi West 10.4 mph - N/A   Mostly Cloudy
1:51 PM 37.9 °F 30.9 °F 19.9 °F 48% 30.03 in 10.0 mi WSW 10.4 mph 17.3 mph N/A   Mostly Cloudy
2:51 PM 39.0 °F 31.0 °F 19.9 °F 46% 30.02 in 10.0 mi WSW 13.8 mph - N/A   Mostly Cloudy
3:51 PM 37.9 °F 30.0 °F 19.0 °F 47% 29.99 in 10.0 mi WSW 12.7 mph - N/A   Mostly Cloudy
4:51 PM 37.9 °F 30.9 °F 21.0 °F 51% 29.98 in 10.0 mi West 10.4 mph - N/A   Mostly Cloudy
5:51 PM 39.2 °F 31.6 °F 19.4 °F 45% 29.98 in 10.0 mi WSW 12.7 mph 23.0 mph N/A   Overcast
6:51 PM 37.9 °F 28.5 °F 19.0 °F 47% 29.97 in 10.0 mi SW 17.3 mph 25.3 mph N/A   Overcast
7:51 PM 39.0 °F 31.0 °F 19.0 °F 45% 29.94 in 10.0 mi WSW 13.8 mph 23.0 mph N/A   Overcast
8:51 PM 39.0 °F 31.0 °F 19.0 °F 45% 29.91 in 10.0 mi WSW 13.8 mph 19.6 mph N/A   Overcast
9:51 PM 39.9 °F 31.8 °F 19.0 °F 43% 29.89 in 10.0 mi WSW 15.0 mph 25.3 mph N/A   Overcast
10:51 PM 39.9 °F 31.4 °F 21.0 °F 47% 29.90 in 10.0 mi WSW 16.1 mph 25.3 mph N/A   Overcast
11:51 PM 41.0 °F 32.2 °F 23.0 °F 49% 29.90 in 10.0 mi West 18.4 mph 26.5 mph N/A   Overcast